TimePST,TemperatureF,Dew PointF,Humidity,Sea Level PressureIn,VisibilityMPH,Wind Direction,Wind SpeedMPH,Gust SpeedMPH,PrecipitationIn,Events,Conditions,WindDirDegrees,DateUTC
12:15 AM,33.8,24.8,70,30.23,7.0,SE,4.6,-,N/A,,Clear,130,2013-12-11 08:15:00
12:35 AM,33.8,24.8,70,30.23,6.0,Calm,Calm,-,N/A,,Clear,0,2013-12-11 08:35:00
12:55 AM,33.8,24.8,70,30.23,7.0,SE,3.5,-,N/A,,Clear,130,2013-12-11 08:55:00
1:15 AM,33.8,24.8,70,30.22,7.0,Calm,Calm,-,N/A,,Clear,0,2013-12-11 09:15:00
1:35 AM,33.8,24.8,70,30.22,7.0,Calm,Calm,-,N/A,,Clear,0,2013-12-11 09:35:00
1:55 AM,33.8,24.8,70,30.22,7.0,Calm,Calm,-,N/A,,Clear,0,2013-12-11 09:55:00
2:15 AM,33.8,24.8,70,30.22,7.0,Calm,Calm,-,N/A,,Clear,0,2013-12-11 10:15:00
2:35 AM,33.8,24.8,70,30.22,6.0,Calm,Calm,-,N/A,,Clear,0,2013-12-11 10:35:00
2:55 AM,33.8,24.8,70,30.22,6.0,Calm,Calm,-,N/A,,Clear,0,2013-12-11 10:55:00
3:15 AM,33.8,24.8,70,30.22,7.0,ESE,3.5,-,N/A,,Clear,120,2013-12-11 11:15:00
3:35 AM,32.0,24.8,75,30.22,7.0,Calm,Calm,-,N/A,,Clear,0,2013-12-11 11:35:00
3:55 AM,32.0,23.0,69,30.21,7.0,SE,4.6,-,N/A,,Clear,140,2013-12-11 11:55:00
4:15 AM,32.0,24.8,75,30.21,6.0,SE,4.6,-,N/A,,Clear,130,2013-12-11 12:15:00
4:35 AM,32.0,24.8,75,30.21,6.0,ESE,3.5,-,N/A,,Clear,110,2013-12-11 12:35:00
4:55 AM,30.2,23.0,75,30.21,5.0,ESE,3.5,-,N/A,,Clear,110,2013-12-11 12:55:00
5:15 AM,30.2,21.2,69,30.22,5.0,Calm,Calm,-,N/A,,Clear,0,2013-12-11 13:15:00
5:35 AM,30.2,23.0,75,30.21,5.0,East,3.5,-,N/A,,Clear,100,2013-12-11 13:35:00
5:55 AM,28.4,21.2,74,30.21,5.0,Calm,Calm,-,N/A,,Clear,0,2013-12-11 13:55:00
6:15 AM,28.4,21.2,74,30.22,6.0,Calm,Calm,-,N/A,,Clear,0,2013-12-11 14:15:00
6:35 AM,28.4,21.2,74,30.22,4.0,East,3.5,-,N/A,,Clear,100,2013-12-11 14:35:00
6:55 AM,28.4,21.2,74,30.22,4.0,Calm,Calm,-,N/A,,Clear,0,2013-12-11 14:55:00
7:15 AM,28.4,21.2,74,30.23,3.0,Calm,Calm,-,N/A,,Clear,0,2013-12-11 15:15:00
7:35 AM,28.4,21.2,74,30.23,3.0,Calm,Calm,-,N/A,,Clear,0,2013-12-11 15:35:00
7:55 AM,30.2,23.0,75,30.24,3.0,Calm,Calm,-,N/A,,Clear,0,2013-12-11 15:55:00
8:15 AM,32.0,26.6,80,30.24,3.0,ESE,3.5,-,N/A,,Clear,110,2013-12-11 16:15:00
8:35 AM,35.6,28.4,75,30.25,5.0,ESE,3.5,-,N/A,,Clear,110,2013-12-11 16:35:00
8:55 AM,37.4,30.2,75,30.26,5.0,ESE,3.5,-,N/A,,Clear,110,2013-12-11 16:55:00
9:15 AM,37.4,28.4,70,30.26,5.0,SSE,4.6,-,N/A,,Clear,160,2013-12-11 17:15:00
9:35 AM,37.4,28.4,70,30.26,5.0,Calm,Calm,-,N/A,,Clear,0,2013-12-11 17:35:00
9:55 AM,39.2,30.2,70,30.26,6.0,Calm,Calm,-,N/A,,Clear,0,2013-12-11 17:55:00
10:15 AM,42.8,30.2,61,30.26,6.0,Calm,Calm,-,N/A,,Clear,0,2013-12-11 18:15:00
10:35 AM,42.8,30.2,61,30.26,7.0,Calm,Calm,-,N/A,,Clear,0,2013-12-11 18:35:00
10:55 AM,44.6,30.2,57,30.26,7.0,Calm,Calm,-,N/A,,Clear,0,2013-12-11 18:55:00
11:15 AM,48.2,32.0,54,30.26,8.0,NNW,4.6,-,N/A,,Clear,340,2013-12-11 19:15:00
11:35 AM,48.2,30.2,50,30.26,8.0,NW,4.6,-,N/A,,Clear,320,2013-12-11 19:35:00
11:55 AM,48.2,30.2,50,30.25,8.0,North,5.8,-,N/A,,Clear,360,2013-12-11 19:55:00
12:15 PM,50.0,30.2,47,30.23,9.0,NNW,4.6,-,N/A,,Clear,330,2013-12-11 20:15:00
12:35 PM,50.0,30.2,47,30.23,9.0,North,5.8,-,N/A,,Clear,350,2013-12-11 20:35:00
12:55 PM,51.8,28.4,41,30.21,9.0,North,5.8,-,N/A,,Clear,350,2013-12-11 20:55:00
1:15 PM,51.8,30.2,44,30.21,8.0,North,4.6,-,N/A,,Clear,360,2013-12-11 21:15:00
1:35 PM,53.6,32.0,44,30.21,8.0,North,3.5,-,N/A,,Clear,360,2013-12-11 21:35:00
1:55 PM,53.6,30.2,41,30.20,9.0,Calm,Calm,-,N/A,,Clear,0,2013-12-11 21:55:00
2:15 PM,53.6,32.0,44,30.20,8.0,North,4.6,-,N/A,,Clear,350,2013-12-11 22:15:00
2:35 PM,53.6,32.0,44,30.20,8.0,North,4.6,-,N/A,,Clear,360,2013-12-11 22:35:00
2:55 PM,53.6,30.2,41,30.19,9.0,North,5.8,-,N/A,,Clear,10,2013-12-11 22:55:00
3:15 PM,55.4,30.2,38,30.19,9.0,NNW,3.5,-,N/A,,Clear,330,2013-12-11 23:15:00
3:35 PM,55.4,30.2,38,30.20,9.0,NNW,4.6,-,N/A,,Clear,330,2013-12-11 23:35:00
3:55 PM,53.6,30.2,41,30.19,9.0,NNW,4.6,-,N/A,,Clear,330,2013-12-11 23:55:00
4:15 PM,53.6,30.2,41,30.19,9.0,Calm,Calm,-,N/A,,Clear,0,2013-12-12 00:15:00
4:35 PM,53.6,30.2,41,30.20,8.0,Calm,Calm,-,N/A,,Clear,0,2013-12-12 00:35:00
4:55 PM,51.8,28.4,41,30.20,8.0,Calm,Calm,-,N/A,,Clear,0,2013-12-12 00:55:00
5:15 PM,48.2,28.4,46,30.20,9.0,Calm,Calm,-,N/A,,Clear,0,2013-12-12 01:15:00
5:35 PM,46.4,28.4,50,30.20,8.0,Calm,Calm,-,N/A,,Clear,0,2013-12-12 01:35:00
5:55 PM,44.6,28.4,53,30.21,8.0,Calm,Calm,-,N/A,,Clear,0,2013-12-12 01:55:00
6:15 PM,44.6,26.6,49,30.21,8.0,Calm,Calm,-,N/A,,Clear,0,2013-12-12 02:15:00
6:35 PM,42.8,28.4,57,30.22,8.0,Calm,Calm,-,N/A,,Clear,0,2013-12-12 02:35:00
6:55 PM,42.8,28.4,57,30.22,8.0,Calm,Calm,-,N/A,,Clear,0,2013-12-12 02:55:00
7:15 PM,41.0,26.6,57,30.22,8.0,Calm,Calm,-,N/A,,Clear,0,2013-12-12 03:15:00
7:35 PM,39.2,26.6,61,30.22,7.0,Calm,Calm,-,N/A,,Clear,0,2013-12-12 03:35:00
7:55 PM,39.2,26.6,61,30.22,7.0,Calm,Calm,-,N/A,,Clear,0,2013-12-12 03:55:00
8:15 PM,39.2,26.6,61,30.23,7.0,Calm,Calm,-,N/A,,Clear,0,2013-12-12 04:15:00
8:35 PM,39.2,26.6,61,30.23,7.0,NNW,3.5,-,N/A,,Clear,330,2013-12-12 04:35:00
8:55 PM,37.4,26.6,65,30.24,5.0,Calm,Calm,-,N/A,,Clear,0,2013-12-12 04:55:00
9:15 PM,35.6,24.8,65,30.24,5.0,NNE,3.5,-,N/A,,Clear,30,2013-12-12 05:15:00
9:35 PM,35.6,24.8,65,30.24,5.0,Calm,Calm,-,N/A,,Clear,0,2013-12-12 05:35:00
9:55 PM,35.6,24.8,65,30.24,5.0,Calm,Calm,-,N/A,,Clear,0,2013-12-12 05:55:00
10:15 PM,35.6,26.6,70,30.24,5.0,Calm,Calm,-,N/A,,Clear,0,2013-12-12 06:15:00
10:35 PM,33.8,24.8,70,30.24,5.0,Calm,Calm,-,N/A,,Clear,0,2013-12-12 06:35:00
10:55 PM,33.8,24.8,70,30.24,5.0,Calm,Calm,-,N/A,,Clear,0,2013-12-12 06:55:00
11:15 PM,33.8,24.8,70,30.24,5.0,Calm,Calm,-,N/A,,Clear,0,2013-12-12 07:15:00
11:35 PM,32.0,23.0,69,30.24,3.0,Calm,Calm,-,N/A,,Clear,0,2013-12-12 07:35:00
11:55 PM,30.2,21.2,69,30.23,3.0,Calm,Calm,-,N/A,,Clear,0,2013-12-12 07:55:00